Tracking 30995 objects as of 5-Jul-2025
HD Live streaming from Space Station
objects crossing your sky now

DELTA 1 DEB

Track DELTA 1 DEB now!
10-day predictions


NORAD ID: 9681
Int'l Code: 1975-004GC
Perigee: 717.6 km
Apogee: 794.0 km
Inclination: 98.0 °
Period: 99.8 minutes
Semi major axis: 7126 km
RCS: 0.0088 m2 (small)
Launch date: January 22, 1975
Source: United States (US)
Launch site: AIR FORCE WESTERN TEST RANGE (AFWTR)

Note: This is SATELLITE DEBRIS
Your satellite tracking list
CARTOSAT 3
Track 1 satellite(s)




NASA's NSSDC Master Catalog

Two Line Element Set (TLE):
1 09681U 75004GC  25186.47128577  .00000157  00000-0  58260-4 0  9991
2 09681  98.0321 262.7926 0053642 261.3886  98.1225 14.42979219593784
Source of the keplerian elements: AFSPC